Location: Nians�bougou
(13.2321°N, 4.9818°W)
Time: 07:07:19
(UTC+00:00)

Milstar 3 - Pass Details

Date: 18 February 2020
Orbit: 1101 x 5144 km, 28.2° (Epoch: 03 April)

Event Time Altitude Azimuth Distance (km) Brightness Sun altitude
Exits shadow 06:08:02 - 298° (WNW) 6,085 6.0 -8.9°
Reaches altitude 10° 06:09:52 10° 300° (WNW) 5,545 5.8 -8.4°
Maximum altitude 06:23:19 50° 13° (NNE) 2,075 4.3 -5.2°
Drops below altitude 10° 06:30:57 10° 88° (E) 3,248 6.9 -3.4°
Sets 06:33:25 0° 94° (E) 4,057 8.4 -2.8°
